• In Lithuania
  • List of Countries
  • For 7 days
  • Water Temperature
  • Satellite Maps
  • Weather Map
  • Weather Widgets
  • user-avatar
    Login

    Hourly Weather Tyrgowishte

    Today, 15 July, Sunday

    Time Temperature Precipitation Wind Pressure Humidity
    00:00 +20°C° 0 mm 3 mps 741 mmHg 75%
    01:00 +19°C° 0 mm 3 mps 741 mmHg 77%
    02:00 +19°C° 0 mm 3 mps 741 mmHg 79%
    03:00 +19°C° 0 mm 3 mps 741 mmHg 81%
    04:00 +18°C° 0 mm 2 mps 741 mmHg 84%
    05:00 +18°C° 0 mm 2 mps 741 mmHg 86%
    06:00 +19°C° 0 mm 2 mps 741 mmHg 79%
    07:00 +21°C° 0 mm 3 mps 741 mmHg 72%
    08:00 +25°C° 0 mm 3 mps 741 mmHg 63%
    09:00 +26°C° 0 mm 4 mps 741 mmHg 58%
    10:00 +27°C° 0 mm 4 mps 741 mmHg 53%
    11:00 +29°C° 0 mm 4 mps 741 mmHg 48%
    12:00 +29°C° 0 mm 4 mps 741 mmHg 46%
    13:00 +30°C° 0 mm 4 mps 741 mmHg 44%
    14:00 +30°C° 0 mm 5 mps 741 mmHg 43%
    15:00 +30°C° 0 mm 4 mps 740 mmHg 44%
    16:00 +29°C° 0 mm 4 mps 740 mmHg 45%
    17:00 +29°C° 0 mm 4 mps 740 mmHg 46%
    18:00 +27°C° 0 mm 3 mps 740 mmHg 51%
    19:00 +26°C° 0 mm 3 mps 740 mmHg 57%
    20:00 +24°C° 0 mm 2 mps 740 mmHg 62%
    21:00 +23°C° 0 mm 2 mps 740 mmHg 63%
    22:00 +21°C° 0 mm 2 mps 740 mmHg 65%
    23:00 +20°C° 0 mm 2 mps 740 mmHg 66%

    Tomorrow, 16 July, Monday

    Time Temperature Precipitation Wind Pressure Humidity
    00:00 +20°C° 0 mm 2 mps 740 mmHg 67%
    01:00 +20°C° 0 mm 3 mps 740 mmHg 68%
    02:00 +20°C° 0 mm 3 mps 740 mmHg 69%
    03:00 +19°C° 0 mm 3 mps 740 mmHg 73%
    04:00 +19°C° 0 mm 3 mps 740 mmHg 77%
    05:00 +18°C° 0 mm 3 mps 740 mmHg 81%
    06:00 +20°C° 0 mm 3 mps 740 mmHg 75%
    07:00 +21°C° 0 mm 3 mps 740 mmHg 70%
    08:00 +24°C° 0 mm 3 mps 740 mmHg 65%
    09:00 +26°C° 0 mm 4 mps 740 mmHg 59%
    10:00 +27°C° 0 mm 4 mps 740 mmHg 53%
    11:00 +29°C° 0 mm 4 mps 740 mmHg 46%
    12:00 +29°C° 0 mm 4 mps 740 mmHg 45%
    13:00 +30°C° 0 mm 5 mps 740 mmHg 43%
    14:00 +32°C° 0 mm 5 mps 740 mmHg 41%
    15:00 +30°C° 0 mm 4 mps 739 mmHg 42%
    16:00 +30°C° 0 mm 4 mps 739 mmHg 42%
    17:00 +30°C° 0 mm 4 mps 739 mmHg 43%
    18:00 +28°C° 0 mm 3 mps 739 mmHg 48%
    19:00 +26°C° 0 mm 3 mps 739 mmHg 53%
    20:00 +24°C° 0 mm 2 mps 739 mmHg 58%
    21:00 +23°C° 0 mm 2 mps 739 mmHg 59%
    22:00 +21°C° 0 mm 2 mps 739 mmHg 60%
    23:00 +21°C° 0 mm 2 mps 739 mmHg 61%

    Day after tomorrow, 17 July, Tuesday

    Time Temperature Precipitation Wind Pressure Humidity
    00:00 +20°C° 0 mm 2 mps 739 mmHg 61%
    01:00 +20°C° 0 mm 2 mps 739 mmHg 62%
    02:00 +20°C° 0 mm 3 mps 739 mmHg 62%
    03:00 +19°C° 0 mm 2 mps 738 mmHg 63%
    04:00 +19°C° 0 mm 2 mps 738 mmHg 64%
    05:00 +19°C° 0 mm 2 mps 738 mmHg 66%
    06:00 +21°C° 0 mm 3 mps 738 mmHg 63%
    07:00 +22°C° 0 mm 3 mps 738 mmHg 60%
    08:00 +25°C° 0 mm 4 mps 738 mmHg 57%
    09:00 +27°C° 0 mm 4 mps 738 mmHg 52%
    10:00 +28°C° 0 mm 4 mps 738 mmHg 47%
    11:00 +30°C° 0 mm 4 mps 738 mmHg 43%
    12:00 +32°C° 0 mm 4 mps 737 mmHg 41%
    13:00 +32°C° 0 mm 4 mps 737 mmHg 38%
    14:00 +33°C° 0 mm 4 mps 736 mmHg 36%
    15:00 +33°C° 0 mm 4 mps 736 mmHg 38%
    16:00 +33°C° 0 mm 4 mps 736 mmHg 39%
    17:00 +33°C° 0 mm 4 mps 736 mmHg 40%
    18:00 +29°C° 0 mm 3 mps 736 mmHg 45%
    19:00 +27°C° 0 mm 2 mps 736 mmHg 51%
    20:00 +25°C° 0 mm 1 mps 736 mmHg 56%
    21:00 +24°C° 0.1 mm 1 mps 736 mmHg 58%
    22:00 +24°C° 0.1 mm 1 mps 736 mmHg 60%
    23:00 +23°C° 0.1 mm 1 mps 736 mmHg 62%

    18 July, Wednesday

    Time Temperature Precipitation Wind Pressure Humidity
    00:00 +23°C° 0 mm 2 mps 736 mmHg 64%
    01:00 +21°C° 0 mm 2 mps 736 mmHg 65%
    02:00 +21°C° 0 mm 3 mps 736 mmHg 67%
    03:00 +21°C° 0 mm 3 mps 736 mmHg 70%
    04:00 +21°C° 0 mm 3 mps 736 mmHg 73%
    05:00 +20°C° 0 mm 4 mps 736 mmHg 77%
    06:00 +21°C° 0 mm 4 mps 736 mmHg 74%
    07:00 +22°C° 0 mm 5 mps 736 mmHg 71%
    08:00 +23°C° 0 mm 6 mps 736 mmHg 68%
    09:00 +26°C° 0 mm 6 mps 737 mmHg 63%
    10:00 +27°C° 0 mm 7 mps 737 mmHg 58%
    11:00 +28°C° 0 mm 7 mps 737 mmHg 54%
    12:00 +28°C° 0 mm 7 mps 736 mmHg 51%
    13:00 +29°C° 0 mm 7 mps 736 mmHg 48%
    14:00 +29°C° 0 mm 7 mps 736 mmHg 45%
    15:00 +29°C° 0 mm 7 mps 736 mmHg 46%
    16:00 +29°C° 0 mm 7 mps 736 mmHg 46%
    17:00 +29°C° 0 mm 7 mps 736 mmHg 46%
    18:00 +27°C° 0 mm 6 mps 736 mmHg 51%
    19:00 +26°C° 0 mm 6 mps 736 mmHg 56%
    20:00 +23°C° 0 mm 5 mps 736 mmHg 61%
    21:00 +22°C° 0 mm 6 mps 736 mmHg 62%
    22:00 +21°C° 0 mm 6 mps 736 mmHg 64%
    23:00 +20°C° 0 mm 7 mps 736 mmHg 65%

    19 July, Thursday

    Time Temperature Precipitation Wind Pressure Humidity
    00:00 +20°C° 0 mm 6 mps 736 mmHg 66%
    01:00 +20°C° 0 mm 6 mps 736 mmHg 67%
    02:00 +19°C° 0 mm 6 mps 736 mmHg 68%
    03:00 +19°C° 0 mm 5 mps 736 mmHg 71%
    04:00 +19°C° 0 mm 5 mps 736 mmHg 73%
    05:00 +18°C° 0 mm 4 mps 736 mmHg 76%
    06:00 +19°C° 0 mm 5 mps 736 mmHg 74%
    07:00 +20°C° 0 mm 5 mps 737 mmHg 71%
    08:00 +22°C° 0 mm 6 mps 737 mmHg 69%
    09:00 +23°C° 0 mm 5 mps 737 mmHg 65%
    10:00 +26°C° 0 mm 5 mps 737 mmHg 61%
    11:00 +27°C° 0 mm 5 mps 737 mmHg 57%
    12:00 +28°C° 0.6 mm 4 mps 737 mmHg 56%
    13:00 +28°C° 0.6 mm 4 mps 737 mmHg 55%
    14:00 +29°C° 0.6 mm 4 mps 737 mmHg 54%
    15:00 +29°C° 0.5 mm 4 mps 737 mmHg 55%
    16:00 +29°C° 0.5 mm 3 mps 737 mmHg 56%
    17:00 +29°C° 0.5 mm 3 mps 737 mmHg 57%
    18:00 +27°C° 0.2 mm 3 mps 737 mmHg 63%
    19:00 +26°C° 0.2 mm 3 mps 737 mmHg 68%
    20:00 +24°C° 0.2 mm 3 mps 738 mmHg 74%
    21:00 +22°C° 0.4 mm 3 mps 738 mmHg 79%
    22:00 +21°C° 0.4 mm 3 mps 738 mmHg 83%
    23:00 +21°C° 0.4 mm 4 mps 739 mmHg 88%

    20 July, Friday

    Time Temperature Precipitation Wind Pressure Humidity
    00:00 +20°C° 0.2 mm 4 mps 739 mmHg 89%
    01:00 +20°C° 0.2 mm 4 mps 739 mmHg 91%
    02:00 +20°C° 0.2 mm 4 mps 739 mmHg 92%
    03:00 +19°C° 0 mm 3 mps 739 mmHg 93%
    04:00 +19°C° 0 mm 3 mps 739 mmHg 93%
    05:00 +19°C° 0 mm 3 mps 739 mmHg 94%
    06:00 +20°C° 0 mm 3 mps 739 mmHg 89%
    07:00 +22°C° 0 mm 3 mps 739 mmHg 83%
    08:00 +23°C° 0 mm 4 mps 740 mmHg 78%
    09:00 +26°C° 0 mm 4 mps 740 mmHg 71%
    10:00 +28°C° 0 mm 4 mps 740 mmHg 65%
    11:00 +30°C° 0 mm 4 mps 740 mmHg 58%
    12:00 +30°C° 0.2 mm 3 mps 740 mmHg 55%
    13:00 +31°C° 0.2 mm 3 mps 740 mmHg 53%
    14:00 +33°C° 0.2 mm 3 mps 740 mmHg 50%
    15:00 +33°C° 0.1 mm 3 mps 740 mmHg 51%
    16:00 +31°C° 0.1 mm 3 mps 740 mmHg 53%
    17:00 +31°C° 0.1 mm 2 mps 740 mmHg 54%
    18:00 +30°C° 0 mm 2 mps 740 mmHg 58%
    19:00 +28°C° 0 mm 1 mps 740 mmHg 62%
    20:00 +27°C° 0 mm 1 mps 740 mmHg 66%
    21:00 +26°C° 0 mm 1 mps 740 mmHg 68%
    22:00 +26°C° 0 mm 1 mps 740 mmHg 71%
    23:00 +25°C° 0 mm 1 mps 741 mmHg 73%
    Show more